Weather History for Palestine, TX

Change the Weather History Date:

Thursday, March 28, 2013

  Actual Average (KTYR) Record (KTYR)
Temperature  
Mean Temperature 60 °F 59 °F  
Max Temperature 70 °F 70 °F 87 °F (1989)
Min Temperature 50 °F 49 °F 24 °F (1955)
Degree Days  
Heating Degree Days 5 7  
Month to date heating degree days 254  
Since 1 July heating degree days 2146  
Cooling Degree Days 0 1  
Month to date cooling degree days 16  
Year to date cooling degree days 28  
Growing Degree Days 10 (Base 50)    
Moisture  
Dew Point 50 °F    
Average Humidity 68    
Maximum Humidity 78    
Minimum Humidity 57    
Precipitation  
Precipitation 0.00 in 0.11 in 1.83 in (1921)
Month to date precipitation 3.79  
Year to date precipitation 10.66  
Snow  
Snow 0.00 in - - ()
Month to date snowfall  
Since 1 July snowfall  
Snow Depth -    
Sea Level Pressure  
Sea Level Pressure 30.23 in    
Wind  
Wind Speed 7 mph (SE)    
Max Wind Speed 12 mph    
Max Gust Speed 17 mph    
Visibility 10 miles    
Events      
T = Trace of Precipitation, MM = Missing Value Source: NWS Daily Summary

Daily Weather History Graph

Daily Weather History Graph

Search for Another Location

Airport:

Trip Planner

Search our weather history database for the weather conditions in past years. The results will help you decide how hot, cold, wet, or windy it might be!

Date:

Astronomy

Mar. 28, 2013 Rise Set
Actual Time 7:16 AM CDT 7:39 PM CDT
Civil Twilight 6:51 AM CDT 8:04 PM CDT
Nautical Twilight 6:22 AM CDT 8:33 PM CDT
Astronomical Twilight 5:53 AM CDT 9:02 PM CDT
Moon 9:23 PM CDT (3/28) 7:51 AM CDT (3/28)
Length of Visible Light 13h 12m
Length of Day
12h 23m
Full, 98% of the Moon is Illuminated
Mar 28
Full
Apr 2
Last Quarter
Apr 10
New
Apr 18
First Quarter
Apr 25
Full

Hourly Weather History & Observations

Time (CDT) Temp. Dew Point Humidity Pressure Visibility Wind Dir Wind Speed Gust Speed Precip Events Conditions
12:15 AM 55.8 °F 42.4 °F 61% 30.25 in 10.0 mi SSE 9.2 mph - N/A   Clear
12:35 AM 55.4 °F 43.0 °F 63% 30.25 in 10.0 mi SSE 8.1 mph - N/A   Clear
12:55 AM 54.5 °F 43.0 °F 65% 30.25 in 10.0 mi SSE 5.8 mph - N/A   Clear
1:15 AM 53.8 °F 43.2 °F 67% 30.25 in 10.0 mi SE 5.8 mph - N/A   Clear
1:35 AM 52.9 °F 43.2 °F 70% 30.25 in 10.0 mi SSE 6.9 mph - N/A   Clear
1:55 AM 52.5 °F 43.2 °F 70% 30.25 in 10.0 mi SSE 4.6 mph - N/A   Clear
2:15 AM 51.8 °F 43.2 °F 72% 30.25 in 10.0 mi SSE 3.5 mph - N/A   Clear
2:35 AM 51.4 °F 43.2 °F 73% 30.24 in 10.0 mi SE 4.6 mph - N/A   Clear
2:55 AM 51.1 °F 43.2 °F 74% 30.25 in 10.0 mi SE 3.5 mph - N/A   Clear
3:15 AM 50.9 °F 43.3 °F 75% 30.25 in 10.0 mi SE 3.5 mph - N/A   Clear
3:35 AM 50.5 °F 43.3 °F 76% 30.24 in 10.0 mi SE 4.6 mph - N/A   Clear
3:55 AM 50.4 °F 43.7 °F 78% 30.24 in 10.0 mi SE 3.5 mph - N/A   Scattered Clouds
4:15 AM 50.9 °F 44.1 °F 77% 30.24 in 10.0 mi ESE 4.6 mph - N/A   Overcast
4:35 AM 52.0 °F 44.6 °F 76% 30.24 in 10.0 mi ESE 4.6 mph - N/A   Overcast
4:55 AM 52.7 °F 45.0 °F 75% 30.24 in 10.0 mi SE 4.6 mph - N/A   Overcast
5:15 AM 52.9 °F 45.5 °F 76% 30.23 in 10.0 mi SE 5.8 mph - N/A   Overcast
5:35 AM 53.2 °F 45.7 °F 76% 30.23 in 10.0 mi SE 4.6 mph - N/A   Overcast
5:55 AM 53.6 °F 46.0 °F 76% 30.24 in 10.0 mi ESE 5.8 mph - N/A   Overcast
6:15 AM 53.6 °F 46.6 °F 77% 30.24 in 10.0 mi SE 5.8 mph - N/A   Overcast
6:35 AM 53.8 °F 46.8 °F 77% 30.24 in 10.0 mi SE 5.8 mph - N/A   Overcast
6:55 AM 53.8 °F 46.9 °F 78% 30.24 in 10.0 mi SE 6.9 mph - N/A   Overcast
7:15 AM 53.8 °F 46.9 °F 78% 30.25 in 10.0 mi ESE 5.8 mph - N/A   Overcast
7:35 AM 54.0 °F 47.3 °F 78% 30.26 in 10.0 mi SE 5.8 mph - N/A   Overcast
7:55 AM 54.1 °F 47.3 °F 78% 30.27 in 10.0 mi ESE 5.8 mph - N/A   Overcast
8:15 AM 54.5 °F 47.7 °F 78% 30.28 in 10.0 mi ESE 6.9 mph - N/A   Overcast
8:35 AM 54.9 °F 47.7 °F 77% 30.28 in 10.0 mi ESE 6.9 mph - N/A   Overcast
8:55 AM 55.6 °F 48.2 °F 76% 30.28 in 10.0 mi ESE 9.2 mph - N/A   Overcast
9:15 AM 56.3 °F 48.4 °F 75% 30.29 in 10.0 mi ESE 9.2 mph - N/A   Overcast
9:35 AM 57.0 °F 48.7 °F 74% 30.29 in 10.0 mi SE 9.2 mph - N/A   Overcast
9:55 AM 58.5 °F 49.3 °F 72% 30.29 in 10.0 mi SE 8.1 mph - N/A   Overcast
10:15 AM 59.0 °F 49.6 °F 71% 30.29 in 10.0 mi SE 8.1 mph - N/A   Overcast
10:35 AM 60.3 °F 50.4 °F 70% 30.29 in 10.0 mi SE 9.2 mph - N/A   Overcast
10:55 AM 61.5 °F 50.9 °F 68% 30.29 in 10.0 mi SE 9.2 mph - N/A   Overcast
11:15 AM 61.9 °F 51.3 °F 68% 30.29 in 10.0 mi SSE 5.8 mph - N/A   Overcast
11:35 AM 62.8 °F 51.8 °F 67% 30.29 in 10.0 mi SSE 8.1 mph - N/A   Overcast
11:55 AM 64.4 °F 52.2 °F 64% 30.28 in 10.0 mi SE 10.4 mph - N/A   Overcast
12:15 PM 65.1 °F 52.9 °F 65% 30.27 in 10.0 mi SE 10.4 mph - N/A   Overcast
12:35 PM 66.2 °F 53.1 °F 63% 30.26 in 10.0 mi SE 8.1 mph - N/A   Overcast
12:55 PM 66.4 °F 53.2 °F 63% 30.26 in 10.0 mi SSE 6.9 mph - N/A   Overcast
1:15 PM 67.5 °F 53.6 °F 61% 30.25 in 10.0 mi SSE 5.8 mph - N/A   Overcast
1:35 PM 68.2 °F 53.6 °F 60% 30.24 in 10.0 mi SE 6.9 mph - N/A   Overcast
1:55 PM 68.4 °F 53.8 °F 60% 30.23 in 10.0 mi SSE 9.2 mph - N/A   Overcast
2:15 PM 68.7 °F 53.6 °F 58% 30.23 in 10.0 mi SSE 8.1 mph 17.3 mph N/A   Overcast
2:35 PM 67.5 °F 53.4 °F 61% 30.23 in 10.0 mi SE 8.1 mph - N/A   Overcast
2:55 PM 67.5 °F 53.6 °F 61% 30.22 in 10.0 mi SE 4.6 mph - N/A   Overcast
3:15 PM 69.8 °F 54.1 °F 57% 30.21 in 10.0 mi SE 8.1 mph - N/A   Overcast
3:35 PM 68.9 °F 54.0 °F 59% 30.20 in 10.0 mi SE 11.5 mph - N/A   Overcast
3:55 PM 69.1 °F 54.0 °F 58% 30.19 in 10.0 mi SE 9.2 mph - N/A   Overcast
4:15 PM 70.0 °F 54.3 °F 57% 30.18 in 10.0 mi SE 11.5 mph 16.1 mph N/A   Overcast
4:35 PM 70.2 °F 54.3 °F 57% 30.18 in 10.0 mi SE 10.4 mph - N/A   Overcast
4:55 PM 69.8 °F 54.1 °F 57% 30.18 in 10.0 mi SSE 9.2 mph 17.3 mph N/A   Overcast
5:15 PM 69.8 °F 54.3 °F 58% 30.18 in 10.0 mi SE 10.4 mph - N/A   Overcast
5:35 PM 68.9 °F 54.3 °F 60% 30.17 in 10.0 mi SE 9.2 mph - N/A   Overcast
5:55 PM 68.9 °F 54.1 °F 59% 30.18 in 10.0 mi SSE 8.1 mph - N/A   Overcast
6:15 PM 69.1 °F 54.5 °F 60% 30.17 in 10.0 mi SE 5.8 mph - N/A   Overcast
6:35 PM 68.9 °F 54.7 °F 60% 30.17 in 10.0 mi SE 5.8 mph - N/A   Overcast
6:55 PM 68.9 °F 54.5 °F 60% 30.17 in 10.0 mi SE 5.8 mph - N/A   Overcast
7:15 PM 68.0 °F 54.7 °F 62% 30.17 in 10.0 mi SE 5.8 mph - N/A   Mostly Cloudy
7:35 PM 67.5 °F 54.5 °F 63% 30.18 in 10.0 mi SE 5.8 mph - N/A   Mostly Cloudy
7:55 PM 67.1 °F 54.7 °F 64% 30.18 in 10.0 mi ESE 4.6 mph - N/A   Overcast
8:15 PM 66.2 °F 54.7 °F 66% 30.18 in 10.0 mi SE 5.8 mph - N/A   Mostly Cloudy
8:35 PM 65.7 °F 54.7 °F 68% 30.18 in 10.0 mi SE 6.9 mph - N/A   Mostly Cloudy
8:55 PM 65.3 °F 54.5 °F 68% 30.18 in 10.0 mi ESE 6.9 mph - N/A   Mostly Cloudy
9:15 PM 64.6 °F 54.0 °F 68% 30.18 in 10.0 mi SE 5.8 mph - N/A   Scattered Clouds
9:35 PM 64.6 °F 53.8 °F 68% 30.19 in 10.0 mi SE 5.8 mph - N/A   Mostly Cloudy
9:55 PM 64.6 °F 53.6 °F 68% 30.20 in 10.0 mi SE 4.6 mph - N/A   Overcast
10:15 PM 64.0 °F 53.6 °F 69% 30.20 in 10.0 mi SE 6.9 mph - N/A   Mostly Cloudy
10:55 PM 64.0 °F 54.5 °F 71% 30.21 in 10.0 mi SSE 9.2 mph - N/A   Overcast
11:15 PM 63.7 °F 54.5 °F 72% 30.21 in 10.0 mi SSE 6.9 mph - N/A   Overcast
11:35 PM 63.5 °F 54.5 °F 72% 30.20 in 10.0 mi SSE 6.9 mph - N/A   Overcast
11:55 PM 63.0 °F 54.5 °F 74% 30.21 in 10.0 mi South 6.9 mph 16.1 mph N/A   Overcast